FW2982 Weather Reports


time (UTC)temp
C
wind
direction
speed
KPH
gust
KPH
rain 1hr
cm
rain 24hr
cm
rain mn
cm
humidity
%
barometer
mb
20200803152235 28 35 1.6 4.8 0.00 0.00 0.00 61 1017.7
20200803151735 28 49 0.0 4.8 0.00 0.00 0.00 62 1017.5
20200803151234 30 303 1.6 4.8 0.00 0.00 0.00 62 1017.4
20200803150734 29 281 1.6 6.4 0.00 0.00 0.00 61 1017.3
20200803150235 29 39 3.2 6.4 0.00 0.00 0.00 59 1017.3
20200803145734 29 309 1.6 6.4 0.00 0.00 0.00 63 1017.4
20200803145233 28 324 1.6 6.4 0.00 0.00 0.00 64 1017.5
20200803144734 27 69 1.6 8.0 0.00 0.00 0.00 64 1017.4
20200803144233 27 63 3.2 8.0 0.00 0.00 0.00 67 1017.6
20200803143734 27 37 3.2 4.8 0.00 0.00 0.00 67 1017.4
20200803143234 26 28 1.6 4.8 0.00 0.00 0.00 72 1017.3
20200803142735 26 72 1.6 3.2 0.00 0.00 0.00 73 1017.2
20200803142234 25 73 0.0 3.2 0.00 0.00 0.00 75 1017.1
20200803141735 25 73 1.6 4.8 0.00 0.00 0.00 73 1017.1
20200803141235 25 73 1.6 3.2 0.00 0.00 0.00 76 1017.2
20200803140734 25 56 1.6 3.2 0.00 0.00 0.00 74 1017.2
20200803140234 25 56 1.6 3.2 0.00 0.00 0.00 73 1017.2
20200803135735 25 34 0.0 3.2 0.00 0.00 0.00 71 1017.3
20200803135234 26 38 0.0 4.8 0.00 0.00 0.00 72 1017.3
20200803134734 25 38 1.6 4.8 0.00 0.00 0.00 75 1017.3
20200803134233 25 44 0.0 1.6 0.00 0.00 0.00 79 1017.2
20200803133733 25 44 0.0 1.6 0.00 0.00 0.00 77 1017.3
20200803133232 25 44 0.0 3.2 0.00 0.00 0.00 74 1017.3
20200803132734 25 44 0.0 3.2 0.00 0.00 0.00 71 1017.3
20200803132233 25 44 1.6 3.2 0.00 0.00 0.00 71 1017.2
20200803131732 26 17 1.6 3.2 0.00 0.00 0.00 71 1017.2
20200803131232 26 17 1.6 4.8 0.00 0.00 0.00 70 1017.3
20200803130731 26 17 1.6 4.8 0.00 0.00 0.00 70 1017.2
20200803130231 25 278 1.6 3.2 0.00 0.00 0.00 77 1017.2
20200803125730 24 278 0.0 3.2 0.00 0.00 0.00 79 1017.2
20200803125231 25 278 0.0 3.2 0.00 0.00 0.00 74 1017.3
20200803124730 25 278 0.0 3.2 0.00 0.00 0.00 76 1017.3
20200803124231 25 278 1.6 3.2 0.00 0.00 0.00 77 1017.3
20200803123731 24 313 0.0 1.6 0.00 0.00 0.00 80 1017.1
20200803123231 24 313 0.0 1.6 0.00 0.00 0.00 79 1017.0
20200803122730 24 313 0.0 1.6 0.00 0.00 0.00 76 1016.9
20200803122232 24 307 0.0 4.8 0.00 0.00 0.00 78 1016.8
20200803121731 24 307 0.0 4.8 0.00 0.00 0.00 78 1016.8
20200803121232 23 327 0.0 0.0 0.00 0.00 0.00 82 1016.7
20200803120731 23 327 0.0 1.6 0.00 0.00 0.00 85 1016.7
20200803120231 22 327 0.0 1.6 0.00 0.00 0.00 85 1016.6
20200803115730 22 327 0.0 1.6 0.00 0.00 0.00 87 1016.7
20200803115230 22 327 0.0 1.6 0.00 0.00 0.00 86 1016.6
20200803114730 22 327 0.0 0.0 0.00 0.00 0.00 86 1016.7
20200803114230 22 327 0.0 0.0 0.00 0.00 0.00 86 1016.7
20200803113730 22 327 0.0 1.6 0.00 0.00 0.00 85 1016.7
20200803113232 22 327 0.0 1.6 0.00 0.00 0.00 83 1016.7
20200803112731 22 327 0.0 4.8 0.00 0.00 0.00 83 1016.7
20200803112231 22 327 0.0 4.8 0.00 0.00 0.00 84 1016.6
20200803111730 22 314 0.0 3.2 0.00 0.00 0.00 86 1016.4
20200803111231 22 314 0.0 3.2 0.00 0.00 0.00 86 1016.3
20200803110734 22 314 0.0 1.6 0.00 0.00 0.00 86 1016.3
20200803110232 22 307 0.0 0.0 0.00 0.00 0.00 86 1016.4
20200803105730 22 307 0.0 0.0 0.00 0.00 0.00 86 1016.3
20200803105229 22 307 0.0 0.0 0.00 0.00 0.00 83 1016.2
20200803104728 22 307 0.0 1.6 0.00 0.00 0.00 83 1016.3
20200803104227 22 307 0.0 1.6 0.00 0.00 0.00 84 1016.2
20200803103728 22 307 0.0 1.6 0.00 0.00 0.00 82 1016.2
20200803103232 22 307 0.0 4.8 0.00 0.00 0.00 83 1016.1
20200803102726 22 306 0.0 1.6 0.00 0.00 0.00 85 1016.1
20200803102226 22 295 0.0 0.0 0.00 0.00 0.00 85 1016.2
20200803101727 22 295 0.0 1.6 0.00 0.00 0.00 86 1016.2
20200803101226 22 295 0.0 1.6 0.00 0.00 0.00 85 1016.2
20200803100726 22 295 0.0 1.6 0.00 0.00 0.00 85 1016.0
20200803100226 22 295 0.0 1.6 0.00 0.00 0.00 86 1016.0
20200803095726 22 295 0.0 1.6 0.00 0.00 0.00 88 1016.0
20200803095225 22 295 0.0 1.6 0.00 0.00 0.00 89 1016.2
20200803094725 22 295 0.0 1.6 0.00 0.00 0.00 90 1016.0
20200803094226 22 295 0.0 1.6 0.00 0.00 0.00 90 1016.0
20200803093725 22 295 0.0 0.0 0.00 0.00 0.00 90 1016.0
20200803093224 22 295 0.0 0.0 0.00 0.00 0.00 91 1016.0
20200803092725 22 295 0.0 0.0 0.00 0.00 0.00 91 1015.8
20200803092224 22 295 0.0 0.0 0.00 0.00 0.00 92 1015.8
20200803091725 22 295 0.0 0.0 0.00 0.00 0.00 92 1015.7
20200803091224 22 295 0.0 1.6 0.00 0.00 0.00 91 1015.6
20200803090724 22 295 0.0 1.6 0.00 0.00 0.00 91 1015.6
20200803090225 22 324 0.0 0.0 0.00 0.00 0.00 92 1015.4
20200803085725 22 324 0.0 0.0 0.00 0.00 0.00 92 1015.2
20200803085226 22 324 0.0 0.0 0.00 0.00 0.00 92 1015.2
20200803084725 22 324 0.0 0.0 0.00 0.00 0.00 92 1015.3
20200803084226 22 324 0.0 0.0 0.00 0.00 0.00 92 1015.2
20200803083725 22 324 0.0 0.0 0.00 0.00 0.00 92 1015.2
20200803083226 22 324 0.0 0.0 0.00 0.00 0.00 92 1015.1
20200803082724 22 324 0.0 0.0 0.00 0.00 0.00 91 1015.2
20200803082224 22 324 0.0 0.0 0.00 0.00 0.00 91 1015.1
20200803081724 22 324 0.0 0.0 0.00 0.00 0.00 91 1015.1
20200803081225 22 324 0.0 0.0 0.00 0.00 0.00 91 1015.2
20200803080731 23 324 0.0 0.0 0.00 0.00 0.00 91 1015.0
20200803080225 22 324 0.0 0.0 0.00 0.00 0.00 91 1014.8
20200803075722 22 324 0.0 0.0 0.00 0.00 0.00 91 1014.9
20200803075223 22 324 0.0 0.0 0.00 0.00 0.00 91 1014.8
20200803074723 22 324 0.0 0.0 0.00 0.00 0.00 91 1014.8
20200803074223 22 324 0.0 0.0 0.00 0.00 0.00 91 1014.7
20200803073723 22 324 0.0 0.0 0.00 0.00 0.00 91 1014.8
20200803073222 22 324 0.0 0.0 0.00 0.00 0.00 91 1014.7
20200803072722 22 324 0.0 0.0 0.00 0.00 0.00 91 1014.7
20200803072222 22 324 0.0 0.0 0.00 0.00 0.00 91 1014.7
20200803071722 22 324 0.0 0.0 0.00 0.00 0.00 91 1014.6
20200803071222 22 324 0.0 0.0 0.00 0.00 0.00 90 1014.6
20200803070721 22 324 0.0 0.0 0.00 0.00 0.00 90 1014.6
20200803070222 22 324 0.0 0.0 0.00 0.00 0.00 90 1014.5
20200803065721 22 324 0.0 0.0 0.00 0.00 0.00 90 1014.4
20200803065221 23 324 0.0 0.0 0.00 0.00 0.00 90 1014.5
20200803064722 23 324 0.0 0.0 0.00 0.00 0.00 89 1014.4
20200803064222 23 324 0.0 0.0 0.00 0.00 0.00 89 1014.3
20200803063721 23 324 0.0 0.0 0.00 0.00 0.00 89 1014.2
20200803063221 23 324 0.0 0.0 0.00 0.00 0.00 89 1014.2
20200803062721 23 324 0.0 0.0 0.00 0.00 0.00 89 1014.2
20200803062221 23 324 0.0 0.0 0.00 0.00 0.00 89 1014.3
20200803061720 23 324 0.0 1.6 0.00 0.00 0.00 89 1014.3
20200803061221 23 324 0.0 1.6 0.00 0.00 0.00 88 1014.5
20200803060720 23 324 0.0 0.0 0.00 0.00 0.00 88 1014.6
20200803060220 23 324 0.0 1.6 0.00 0.00 0.00 87 1014.5
20200803055722 23 324 0.0 1.6 0.00 0.00 0.00 87 1014.4
20200803055222 23 324 0.0 0.0 0.00 0.00 0.00 87 1014.3
20200803054722 23 324 0.0 0.0 0.00 0.00 0.00 86 1014.2
20200803054221 23 324 0.0 0.0 0.00 0.00 0.00 86 1014.2
20200803053721 24 324 0.0 0.0 0.00 0.00 0.00 87 1014.2
20200803053221 24 324 0.0 0.0 0.00 0.00 0.00 86 1014.2
20200803052722 24 324 0.0 1.6 0.00 0.00 0.00 86 1014.0
20200803052221 25 324 0.0 1.6 0.00 0.00 0.00 87 1013.9
20200803051725 24 324 0.0 1.6 0.00 0.00 0.00 84 1014.0
20200803051222 24 324 0.0 1.6 0.00 0.00 0.00 84 1013.8
20200803050720 24 324 0.0 1.6 0.00 0.00 0.00 85 1013.8
20200803050220 24 324 0.0 1.6 0.00 0.00 0.00 86 1013.8
20200803045722 24 324 0.0 1.6 0.00 0.00 0.00 86 1013.7
20200803045221 25 324 0.0 0.0 0.00 0.00 0.00 87 1013.7
20200803044720 25 324 0.0 1.6 0.00 0.00 0.00 87 1013.9
20200803044220 25 324 0.0 1.6 0.00 0.00 0.00 87 1013.8
20200803043720 25 324 0.0 1.6 0.00 0.00 0.00 87 1013.9
20200803043222 25 324 0.0 1.6 0.00 0.00 0.00 87 1013.9
20200803042720 25 324 0.0 1.6 0.00 0.00 0.00 86 1013.9
20200803042219 25 324 0.0 3.2 0.00 0.00 0.00 86 1013.8
20200803041719 25 324 0.0 3.2 0.00 0.00 0.00 86 1013.7
20200803041219 25 324 0.0 0.0 0.00 0.00 0.00 85 1013.5
20200803040719 25 324 0.0 0.0 0.00 0.00 0.00 85 1013.4
20200803040219 25 324 0.0 0.0 0.00 0.00 0.00 85 1013.5
20200803035720 25 324 0.0 1.6 0.00 0.00 0.00 85 1013.6
20200803035219 26 324 0.0 1.6 0.00 0.00 0.00 85 1013.4
20200803034718 26 324 0.0 1.6 0.00 0.00 0.00 84 1013.6
20200803034219 26 324 0.0 4.8 0.00 0.00 0.00 83 1013.6
20200803033718 26 324 1.6 11.3 0.00 0.00 0.00 83 1013.6
20200803033218 26 289 3.2 11.3 0.00 0.00 0.00 84 1013.5
20200803032718 26 329 1.6 6.4 0.00 0.00 0.00 85 1013.5
20200803032218 25 338 1.6 3.2 0.00 0.00 0.00 86 1013.5
20200803031718 25 238 1.6 3.2 0.00 0.00 0.00 86 1013.5
20200803031218 25 217 0.0 1.6 0.00 0.00 0.00 86 1013.1
20200803030717 25 217 0.0 0.0 0.00 0.00 0.00 86 1013.1
20200803030218 25 217 0.0 0.0 0.00 0.00 0.00 85 1013.1
20200803025718 25 217 0.0 1.6 0.00 0.00 0.00 85 1013.1
20200803025217 25 217 0.0 3.2 0.00 0.00 0.00 84 1013.0
20200803024716 25 217 1.6 3.2 0.00 0.00 0.00 84 1012.9
20200803024217 26 217 1.6 4.8 0.00 0.00 0.00 84 1012.9
20200803023718 26 217 3.2 4.8 0.00 0.00 0.00 84 1012.9
20200803023217 26 217 0.0 3.2 0.00 0.00 0.00 83 1012.9
20200803022718 26 217 1.6 4.8 0.00 0.00 0.00 83 1012.8
20200803022216 26 220 1.6 4.8 0.00 0.00 0.00 83 1012.8
20200803021717 26 212 0.0 3.2 0.00 0.00 0.00 83 1012.7
20200803021215 26 212 0.0 3.2 0.00 0.00 0.00 83 1012.6
20200803020715 26 233 0.0 3.2 0.00 0.00 0.00 83 1012.5
20200803020215 26 233 0.0 3.2 0.00 0.00 0.00 82 1012.5
20200803015715 26 235 1.6 3.2 0.00 0.00 0.00 83 1012.3
20200803015215 25 235 0.0 3.2 0.00 0.00 0.00 83 1012.3
20200803014714 25 235 1.6 3.2 0.00 0.00 0.00 83 1012.2
20200803014214 25 233 1.6 3.2 0.00 0.00 0.00 83 1012.1
20200803013714 26 221 0.0 3.2 0.00 0.00 0.00 83 1012.2
20200803013217 26 221 0.0 3.2 0.00 0.00 0.00 83 1012.1
20200803012716 26 221 0.0 3.2 0.00 0.00 0.00 82 1011.9
20200803012217 26 221 0.0 1.6 0.00 0.00 0.00 81 1011.9
20200803011715 26 221 0.0 1.6 0.00 0.00 0.00 81 1011.8
20200803011215 26 221 0.0 1.6 0.00 0.00 0.00 80 1011.8
20200803010716 26 221 0.0 4.8 0.00 0.00 0.00 80 1011.7
20200803010216 26 221 1.6 4.8 0.00 0.00 0.00 80 1011.6
20200803005715 26 219 0.0 1.6 0.00 0.00 0.00 80 1011.6
20200803005216 26 219 0.0 1.6 0.00 0.00 0.00 79 1011.6
20200803004714 26 219 0.0 1.6 0.00 0.00 0.00 79 1011.4
20200803004216 26 219 0.0 1.6 0.00 0.00 0.00 78 1011.4
20200803003715 27 219 0.0 0.0 0.00 0.00 0.00 78 1011.5
20200803003214 27 219 0.0 1.6 0.00 0.00 0.00 77 1011.4
20200803002715 27 219 0.0 4.8 0.00 0.00 0.00 77 1011.3
20200803002214 27 219 0.0 4.8 0.00 0.00 0.00 76 1011.3
20200803001714 27 219 0.0 3.2 0.00 0.00 0.00 76 1011.2
20200803001213 27 219 0.0 3.2 0.00 0.00 0.00 76 1011.3
20200803000712 27 219 0.0 3.2 0.00 0.00 0.00 75 1011.3
20200803000213 27 219 0.0 3.2 0.00 0.00 0.00 75 1011.2
20200802235712 28 219 0.0 4.8 0.00 0.00 0.00 75 1011.2
20200802235213 28 219 1.6 4.8 0.00 0.00 0.00 75 1011.1
20200802234712 28 227 0.0 4.8 0.00 0.00 0.00 75 1011.1
20200802234211 28 227 1.6 4.8 0.00 0.00 0.00 74 1011.1
20200802233712 28 220 0.0 1.6 0.00 0.00 0.00 74 1011.1
20200802233211 28 220 0.0 3.2 0.00 0.00 0.00 74 1011.1
20200802232712 28 220 0.0 3.2 0.00 0.00 0.00 74 1011.0
20200802232211 28 223 0.0 3.2 0.00 0.00 0.00 73 1011.0
20200802231711 28 223 0.0 3.2 0.00 0.00 0.00 73 1010.9
20200802231211 28 223 0.0 3.2 0.00 0.00 0.00 72 1010.9
20200802230711 28 223 0.0 3.2 0.00 0.00 0.00 72 1010.9
20200802230211 29 223 0.0 6.4 0.00 0.00 0.00 73 1010.9
20200802225710 29 223 1.6 6.4 0.00 0.00 0.00 70 1010.8
20200802225211 29 209 1.6 11.3 0.00 0.00 0.00 70 1010.7
20200802224711 30 199 3.2 11.3 0.00 0.00 0.00 69 1010.7
20200802224211 30 257 1.6 9.7 0.00 0.00 0.00 71 1010.6
20200802223710 30 213 3.2 9.7 0.00 0.00 0.00 69 1010.6
20200802223210 30 17 3.2 8.0 0.00 0.00 0.00 70 1010.6
20200802222710 30 185 0.0 8.0 0.00 0.00 0.00 69 1010.6
20200802222210 30 247 1.6 8.0 0.00 0.00 0.00 68 1010.6
20200802221710 30 200 1.6 11.3 0.00 0.00 0.00 69 1010.7
20200802221205 30 80 4.8 11.3 0.00 0.00 0.00 68 1010.7
20200802220705 30 186 3.2 8.0 0.00 0.00 0.00 70 1010.7
20200802220205 30 216 3.2 6.4 0.00 0.00 0.00 70 1010.6
20200802215705 30 195 1.6 9.7 0.00 0.00 0.00 71 1010.6
20200802215205 30 213 3.2 9.7 0.00 0.00 0.00 70 1010.7
20200802214705 30 186 1.6 6.4 0.00 0.00 0.00 70 1010.7
20200802214203 31 66 1.6 9.7 0.00 0.00 0.00 68 1010.6
20200802213704 31 254 3.2 8.0 0.00 0.00 0.00 67 1010.5
20200802213205 31 233 3.2 11.3 0.00 0.00 0.00 68 1010.5
20200802212704 31 200 3.2 11.3 0.00 0.00 0.00 69 1010.4
20200802212202 31 206 3.2 9.7 0.00 0.00 0.00 68 1010.6
20200802211704 31 206 0.0 8.0 0.00 0.00 0.00 69 1010.5
20200802211203 31 230 3.2 6.4 0.00 0.00 0.00 70 1010.5
20200802210704 31 190 1.6 6.4 0.00 0.00 0.00 71 1010.3
20200802210203 31 189 1.6 11.3 0.00 0.00 0.00 68 1010.3
20200802205702 31 23 3.2 4.8 0.00 0.00 0.00 68 1010.3
20200802205203 31 169 1.6 6.4 0.00 0.00 0.00 69 1010.3
20200802204703 31 240 3.2 9.7 0.00 0.00 0.00 67 1010.3
20200802204203 31 213 3.2 6.4 0.00 0.00 0.00 65 1010.3
20200802203703 31 214 3.2 6.4 0.00 0.00 0.00 66 1010.4
20200802203204 31 275 1.6 6.4 0.00 0.00 0.00 66 1010.3
20200802202704 31 213 1.6 6.4 0.00 0.00 0.00 68 1010.2
20200802202203 31 196 0.0 3.2 0.00 0.00 0.00 73 1010.3
20200802201703 30 248 0.0 4.8 0.00 0.00 0.00 73 1010.3
20200802201204 31 200 1.6 6.4 0.00 0.00 0.00 71 1010.4
20200802200702 31 210 1.6 8.0 0.00 0.00 0.00 68 1010.4
20200802200203 31 224 3.2 6.4 0.00 0.00 0.00 69 1010.4
20200802195703 31 190 1.6 6.4 0.00 0.00 0.00 67 1010.5
20200802195203 31 190 1.6 17.7 0.00 0.00 0.00 67 1010.5
20200802194703 32 142 3.2 17.7 0.00 0.00 0.00 65 1010.5
20200802194203 31 247 4.8 17.7 0.00 0.00 0.00 66 1010.4
20200802193703 31 192 3.2 9.7 0.00 0.00 0.00 68 1010.3
20200802193202 31 219 1.6 9.7 0.00 0.00 0.00 68 1010.5
20200802192703 31 324 3.2 9.7 0.00 0.00 0.00 67 1010.5
20200802192203 31 282 1.6 11.3 0.00 0.00 0.00 70 1010.5
20200802191705 31 110 1.6 9.7 0.00 0.00 0.00 69 1010.7
20200802191203 31 281 3.2 6.4 0.00 0.00 0.00 69 1010.6
20200802190704 31 234 1.6 14.5 0.00 0.00 0.00 68 1010.7
20200802190204 31 224 3.2 6.4 0.00 0.00 0.00 68 1010.7
20200802185703 31 130 3.2 8.0 0.00 0.00 0.00 69 1010.7
20200802185203 31 334 3.2 6.4 0.00 0.00 0.00 68 1010.8
20200802184705 31 0 3.2 6.4 0.00 0.00 0.00 68 1010.8
20200802184204 32 55 3.2 14.5 0.00 0.00 0.00 67 1010.9
20200802183702 32 228 3.2 9.7 0.00 0.00 0.00 66 1010.8
20200802183203 31 281 3.2 4.8 0.00 0.00 0.00 67 1010.8
20200802182702 31 281 3.2 8.0 0.00 0.00 0.00 67 1010.9
20200802182202 31 299 3.2 11.3 0.00 0.00 0.00 65 1010.9
20200802181702 31 238 3.2 11.3 0.00 0.00 0.00 65 1011.0
20200802181203 32 231 3.2 4.8 0.00 0.00 0.00 68 1011.0
20200802180704 32 90 0.0 6.4 0.00 0.00 0.00 66 1011.0
20200802180204 32 65 1.6 6.4 0.00 0.00 0.00 67 1011.0
20200802175703 32 0 3.2 6.4 0.00 0.00 0.00 68 1011.1
20200802175203 32 103 1.6 6.4 0.00 0.00 0.00 67 1011.1
20200802174702 32 224 3.2 4.8 0.00 0.00 0.00 66 1011.2
20200802174203 32 241 1.6 6.4 0.00 0.00 0.00 65 1011.1
20200802173701 32 209 3.2 11.3 0.00 0.00 0.00 66 1011.2
20200802173201 32 238 4.8 9.7 0.00 0.00 0.00 66 1011.2
20200802172701 32 234 3.2 9.7 0.00 0.00 0.00 69 1011.2
20200802172201 32 327 1.6 9.7 0.00 0.00 0.00 67 1011.3
20200802171702 32 223 1.6 8.0 0.00 0.00 0.00 65 1011.4
20200802171200 32 226 1.6 9.7 0.00 0.00 0.00 67 1011.3
20200802170702 33 209 1.6 9.7 0.00 0.00 0.00 69 1011.3
20200802170201 33 240 1.6 8.0 0.00 0.00 0.00 66 1011.1
20200802165700 32 137 1.6 9.7 0.00 0.00 0.00 65 1011.2
20200802165201 33 264 3.2 17.7 0.00 0.00 0.00 64 1011.3
20200802164700 33 286 4.8 17.7 0.00 0.00 0.00 63 1011.3
20200802164200 33 212 3.2 6.4 0.00 0.00 0.00 65 1011.2
20200802163702 33 302 1.6 6.4 0.00 0.00 0.00 66 1011.3
20200802163200 33 262 3.2 6.4 0.00 0.00 0.00 64 1011.3
20200802162701 32 257 3.2 9.7 0.00 0.00 0.00 68 1011.4
20200802162210 32 8 3.2 16.1 0.00 0.00 0.00 67 1011.4
20200802162200 32 207 3.2 9.7 0.00 0.00 0.00 67 1011.5
20200802161712 32 8 3.2 16.1 0.00 0.00 0.00 67 1011.4
20200802161201 32 190 4.8 16.1 0.00 0.00 0.00 68 1011.6
20200802160659 32 94 1.6 8.0 0.00 0.00 0.00 67 1011.7
20200802160200 32 207 1.6 8.0 0.00 0.00 0.00 67 1011.6
20200802155701 33 192 1.6 8.0 0.00 0.00 0.00 66 1011.7
20200802155159 32 202 3.2 14.5 0.00 0.00 0.00 67 1011.7
20200802154700 32 268 4.8 14.5 0.00 0.00 0.00 69 1011.8
20200802154159 32 264 3.2 14.5 0.00 0.00 0.00 69 1011.8
20200802153700 32 235 3.2 6.4 0.00 0.00 0.00 68 1011.8
20200802153159 32 243 3.2 6.4 0.00 0.00 0.00 71 1011.8